TimeCST,TemperatureF,Dew PointF,Humidity,Sea Level PressureIn,VisibilityMPH,Wind Direction,Wind SpeedMPH,Gust SpeedMPH,PrecipitationIn,Events,Conditions,WindDirDegrees,DateUTC
12:05 AM,28.4,19.4,69,29.77,10.0,West,24.2,32.2,N/A,,Overcast,270,2013-01-12 06:05:00
12:55 AM,26.2,16.0,65,29.81,10.0,West,29.9,35.7,N/A,,Partly Cloudy,270,2013-01-12 06:55:00
1:55 AM,24.3,13.3,63,29.87,10.0,West,23.0,33.4,N/A,,Clear,280,2013-01-12 07:55:00
2:55 AM,23.2,11.5,61,29.92,10.0,West,19.6,32.2,N/A,,Clear,280,2013-01-12 08:55:00
3:55 AM,22.5,12.4,65,29.95,10.0,WNW,17.3,-,N/A,,Clear,290,2013-01-12 09:55:00
4:55 AM,21.7,10.8,63,29.99,10.0,West,15.0,-,N/A,,Clear,270,2013-01-12 10:55:00
5:55 AM,20.5,9.3,62,30.00,10.0,WNW,16.1,-,N/A,,Clear,290,2013-01-12 11:55:00
6:55 AM,19.8,8.8,62,30.04,10.0,West,11.5,-,N/A,,Clear,280,2013-01-12 12:55:00
7:55 AM,19.0,10.2,69,30.06,10.0,West,9.2,-,N/A,,Clear,270,2013-01-12 13:55:00
8:55 AM,19.9,9.9,65,30.10,10.0,West,11.5,-,N/A,,Clear,270,2013-01-12 14:55:00
9:55 AM,19.4,8.6,63,30.12,10.0,WNW,13.8,-,N/A,,Partly Cloudy,290,2013-01-12 15:55:00
10:55 AM,20.7,7.2,56,30.14,10.0,West,18.4,23.0,N/A,,Overcast,280,2013-01-12 16:55:00
11:55 AM,21.4,5.9,51,30.12,10.0,WNW,17.3,-,N/A,,Partly Cloudy,300,2013-01-12 17:55:00
12:55 PM,22.6,7.0,51,30.10,10.0,NW,16.1,-,N/A,,Scattered Clouds,310,2013-01-12 18:55:00
1:55 PM,23.4,7.0,50,30.09,10.0,NW,17.3,23.0,N/A,,Partly Cloudy,320,2013-01-12 19:55:00
2:55 PM,22.3,7.3,53,30.09,10.0,WNW,17.3,-,N/A,,Mostly Cloudy,300,2013-01-12 20:55:00
3:55 PM,21.7,7.2,54,30.12,10.0,NW,13.8,-,N/A,,Mostly Cloudy,310,2013-01-12 21:55:00
4:55 PM,20.7,7.7,57,30.11,10.0,NNW,11.5,-,N/A,,Overcast,330,2013-01-12 22:55:00
5:55 PM,19.2,6.6,58,30.16,10.0,NW,12.7,-,N/A,,Overcast,310,2013-01-12 23:55:00
6:55 PM,18.9,6.6,59,30.19,10.0,NW,8.1,-,N/A,,Overcast,320,2013-01-13 00:55:00
7:55 PM,17.6,6.1,61,30.18,10.0,NW,12.7,-,N/A,,Overcast,320,2013-01-13 01:55:00
8:55 PM,16.5,5.9,63,30.18,10.0,NW,11.5,-,N/A,,Partly Cloudy,320,2013-01-13 02:55:00
9:55 PM,15.1,5.4,65,30.18,10.0,NNW,10.4,-,N/A,,Partly Cloudy,330,2013-01-13 03:55:00
10:55 PM,13.8,2.8,62,30.17,10.0,NW,11.5,21.9,N/A,,Clear,320,2013-01-13 04:55:00
11:55 PM,12.2,2.8,66,30.18,10.0,NW,11.5,-,N/A,,Clear,320,2013-01-13 05:55:00